Weather History for Brookhaven, MS

Change the Weather History Date:

Sunday, October 7, 2012

  Actual Average (KMCB) Record (KMCB)
Temperature  
Mean Temperature 54 °F -  
Max Temperature 60 °F 79 °F 91 °F (1990)
Min Temperature 48 °F 55 °F 40 °F (1964)
Degree Days  
Heating Degree Days 11    
Growing Degree Days 4 (Base 50)    
Moisture  
Dew Point 49 °F    
Average Humidity 87    
Maximum Humidity 100    
Minimum Humidity 63    
Precipitation  
Precipitation 0.00 in - - ()
Sea Level Pressure  
Sea Level Pressure 30.15 in    
Wind  
Wind Speed 7 mph (North)    
Max Wind Speed 12 mph    
Max Gust Speed -    
Visibility 8 miles    
Events      
Averages and records for this station are not official NWS values.
T = Trace of Precipitation, MM = Missing Value Source: NWS Daily Summary

Daily Weather History Graph

Daily Weather History Graph

Search for Another Location

Airport:

Trip Planner

Search our weather history database for the weather conditions in past years. The results will help you decide how hot, cold, wet, or windy it might be!

Date:

Astronomy

Oct. 07, 2012 Rise Set
Actual Time 6:59 AM CDT 6:38 PM CDT
Civil Twilight 6:35 AM CDT 7:02 PM CDT
Nautical Twilight 6:07 AM CDT 7:30 PM CDT
Astronomical Twilight 5:38 AM CDT 7:59 PM CDT
Moon No Moon Rise 1:22 PM CDT (10/7)
Length of Visible Light 12h 27m
Length of Day
11h 38m
Waning Gibbous, 56% of the Moon is Illuminated
Oct 7
Waning Gibbous
Oct 8
Last Quarter
Oct 15
New
Oct 21
First Quarter
Oct 29
Full

Hourly Weather History & Observations

Time (CDT) Temp. Dew Point Humidity Pressure Visibility Wind Dir Wind Speed Gust Speed Precip Events Conditions
12:15 AM 53.6 °F 53.6 °F 100% 30.10 in 5.0 mi North 6.9 mph - N/A   Overcast
12:35 AM 53.6 °F 53.6 °F 100% 30.10 in 10.0 mi North 8.1 mph - N/A   Overcast
12:55 AM 53.6 °F 53.6 °F 100% 30.10 in 10.0 mi North 8.1 mph - N/A   Overcast
1:15 AM 53.6 °F 53.6 °F 100% 30.11 in 10.0 mi North 6.9 mph - N/A   Overcast
1:35 AM 53.6 °F 53.6 °F 100% 30.11 in 5.0 mi North 5.8 mph - N/A   Overcast
1:55 AM 53.6 °F 53.6 °F 100% 30.10 in 5.0 mi North 4.6 mph - N/A   Overcast
2:15 AM 53.6 °F 53.6 °F 100% 30.11 in 10.0 mi NW 6.9 mph - N/A   Overcast
2:35 AM 53.6 °F 51.8 °F 94% 30.12 in 5.0 mi NNW 6.9 mph - N/A   Overcast
2:55 AM 51.8 °F 51.8 °F 100% 30.12 in 1.8 mi NNW 6.9 mph - N/A   Overcast
3:15 AM 51.8 °F 51.8 °F 100% 30.13 in 1.8 mi NNW 5.8 mph - N/A   Overcast
3:35 AM 51.8 °F 51.8 °F 100% 30.13 in 0.8 mi NW 9.2 mph - N/A   Overcast
3:55 AM 51.8 °F 51.8 °F 100% 30.13 in 1.2 mi NNW 6.9 mph - N/A   Overcast
4:15 AM 51.8 °F 51.8 °F 100% 30.13 in 1.2 mi NNW 5.8 mph - N/A   Overcast
4:35 AM 51.8 °F 50.0 °F 94% 30.13 in 2.0 mi NNW 6.9 mph - N/A   Overcast
4:55 AM 51.8 °F 50.0 °F 94% 30.13 in 2.0 mi North 5.8 mph - N/A   Overcast
5:15 AM 51.8 °F 50.0 °F 94% 30.14 in 2.0 mi NNW 9.2 mph - N/A   Overcast
5:35 AM 50.0 °F 50.0 °F 100% 30.14 in 1.2 mi North 8.1 mph - N/A   Overcast
5:55 AM 50.0 °F 48.2 °F 94% 30.14 in 3.0 mi NNW 9.2 mph - N/A   Overcast
6:15 AM 48.2 °F 48.2 °F 100% 30.15 in 3.0 mi NNW 6.9 mph - N/A   Overcast
6:55 AM 50.0 °F 48.2 °F 94% 30.16 in 10.0 mi NNW 5.8 mph - N/A   Overcast
7:15 AM 50.0 °F 48.2 °F 94% 30.17 in 10.0 mi North 8.1 mph - N/A   Overcast
7:35 AM 50.0 °F 48.2 °F 94% 30.17 in 9.0 mi North 6.9 mph - N/A   Overcast
7:55 AM 50.0 °F 48.2 °F 94% 30.18 in 9.0 mi North 10.4 mph - N/A   Overcast
8:15 AM 50.0 °F 48.2 °F 94% 30.18 in 8.0 mi North 8.1 mph - N/A   Overcast
8:35 AM 51.8 °F 48.2 °F 88% 30.18 in 10.0 mi North 8.1 mph - N/A   Overcast
8:55 AM 51.8 °F 48.2 °F 88% 30.18 in 10.0 mi North 9.2 mph - N/A   Overcast
9:15 AM 51.8 °F 48.2 °F 88% 30.19 in 10.0 mi North 10.4 mph - N/A   Overcast
9:35 AM 51.8 °F 48.2 °F 88% 30.20 in 9.0 mi North 8.1 mph - N/A   Overcast
9:55 AM 51.8 °F 48.2 °F 88% 30.20 in 8.0 mi NNW 6.9 mph - N/A   Overcast
10:15 AM 51.8 °F 48.2 °F 88% 30.20 in 8.0 mi North 9.2 mph - N/A   Overcast
10:35 AM 51.8 °F 48.2 °F 88% 30.20 in 10.0 mi North 10.4 mph - N/A   Overcast
10:55 AM 53.6 °F 48.2 °F 82% 30.20 in 9.0 mi North 6.9 mph - N/A   Overcast
11:15 AM 53.6 °F 48.2 °F 82% 30.20 in 9.0 mi North 9.2 mph - N/A   Overcast
11:35 AM 53.6 °F 48.2 °F 82% 30.20 in 8.0 mi North 11.5 mph - N/A   Overcast
11:55 AM 53.6 °F 48.2 °F 82% 30.20 in 9.0 mi NNW 9.2 mph - N/A   Overcast
12:15 PM 53.6 °F 48.2 °F 82% 30.19 in 10.0 mi NNW 6.9 mph - N/A   Overcast
12:35 PM 55.4 °F 48.2 °F 77% 30.19 in 9.0 mi North 11.5 mph - N/A   Overcast
12:55 PM 55.4 °F 48.2 °F 77% 30.18 in 10.0 mi NNW 9.2 mph - N/A   Overcast
1:15 PM 57.2 °F 48.2 °F 72% 30.17 in 10.0 mi NNW 9.2 mph - N/A   Overcast
1:35 PM 57.2 °F 48.2 °F 72% 30.16 in 10.0 mi NNW 6.9 mph - N/A   Overcast
1:55 PM 57.2 °F 48.2 °F 72% 30.15 in 10.0 mi North 10.4 mph - N/A   Overcast
2:15 PM 57.2 °F 48.2 °F 72% 30.14 in 9.0 mi North 9.2 mph - N/A   Overcast
2:35 PM 59.0 °F 48.2 °F 67% 30.14 in 10.0 mi North 6.9 mph - N/A   Overcast
2:55 PM 60.8 °F 48.2 °F 63% 30.13 in 10.0 mi North 10.4 mph - N/A   Overcast
3:15 PM 59.0 °F 48.2 °F 67% 30.13 in 10.0 mi NNW 10.4 mph - N/A   Overcast
3:35 PM 57.2 °F 48.2 °F 72% 30.13 in 9.0 mi NNW 10.4 mph - N/A   Overcast
3:55 PM 57.2 °F 48.2 °F 72% 30.13 in 9.0 mi North 8.1 mph - N/A   Overcast
4:15 PM 57.2 °F 48.2 °F 72% 30.13 in 9.0 mi North 5.8 mph - N/A   Overcast
4:35 PM 57.2 °F 48.2 °F 72% 30.12 in 9.0 mi North 9.2 mph - N/A   Overcast
4:55 PM 57.2 °F 48.2 °F 72% 30.12 in 10.0 mi North 5.8 mph - N/A   Mostly Cloudy
5:15 PM 57.2 °F 48.2 °F 72% 30.12 in 10.0 mi North 5.8 mph - N/A   Mostly Cloudy
5:35 PM 57.2 °F 48.2 °F 72% 30.11 in 9.0 mi North 4.6 mph - N/A   Mostly Cloudy
5:55 PM 57.2 °F 50.0 °F 77% 30.12 in 10.0 mi NNW 5.8 mph - N/A   Clear
6:15 PM 57.2 °F 50.0 °F 77% 30.12 in 9.0 mi NNW 3.5 mph - N/A   Clear
6:35 PM 55.4 °F 51.8 °F 88% 30.13 in 10.0 mi North 3.5 mph - N/A   Mostly Cloudy
6:55 PM 55.4 °F 51.8 °F 88% 30.13 in 10.0 mi Calm Calm - N/A   Partly Cloudy
7:15 PM 53.6 °F 51.8 °F 94% 30.13 in 10.0 mi North 3.5 mph - N/A   Clear
7:55 PM 53.6 °F 48.2 °F 82% 30.13 in 10.0 mi NNE 3.5 mph - N/A   Clear
8:15 PM 53.6 °F 48.2 °F 82% 30.14 in 10.0 mi NNE 4.6 mph - N/A   Clear
8:35 PM 51.8 °F 48.2 °F 88% 30.15 in 10.0 mi North 5.8 mph - N/A   Clear
8:55 PM 51.8 °F 46.4 °F 82% 30.15 in 10.0 mi North 5.8 mph - N/A   Clear
9:15 PM 51.8 °F 46.4 °F 82% 30.17 in 10.0 mi North 6.9 mph - N/A   Clear
9:35 PM 51.8 °F 46.4 °F 82% 30.16 in 10.0 mi NNE 4.6 mph - N/A   Clear
9:55 PM 51.8 °F 46.4 °F 82% 30.15 in 10.0 mi NE 3.5 mph - N/A   Clear
10:15 PM 50.0 °F 46.4 °F 87% 30.16 in 10.0 mi North 4.6 mph - N/A   Clear
10:35 PM 50.0 °F 46.4 °F 87% 30.17 in 10.0 mi North 4.6 mph - N/A   Clear
10:55 PM 48.2 °F 46.4 °F 93% 30.17 in 10.0 mi North 3.5 mph - N/A   Clear
11:15 PM 48.2 °F 46.4 °F 93% 30.16 in 10.0 mi Calm Calm - N/A   Clear
11:35 PM 48.2 °F 46.4 °F 93% 30.16 in 10.0 mi Calm Calm - N/A   Clear
11:55 PM 48.2 °F 46.4 °F 93% 30.15 in 10.0 mi Calm Calm - N/A   Clear